RH
78 70 75 78 75 86 82 79 85 68 78 57 51 53 51 86 83 78 77 74 81 88 83 82 79 80 79 74 79 83 95 99 100 98 100 100 100 100 100 100 100 100 100 90
92 72 83 93 82 82 84 78 80 70 74 48 47 52 76 89 83 75 74 66 81 75 77 78 80 81 83 87 92 95 96 96 99 100 100 100 100 100 100 100 97 93 86 85
88 78 83 88 84 79 81 78 68 84 60 49 60 73 89 88 87 72 70 70 69 71 74 76 81 86 90 97 95 96 93 91 93 94 97 95 94 94 91 88 86 83 81 81
98 83 96 57 58 64 68 60 67 61 55 51 67 88 89 95 86 70 73 80 74 72 77 79 86 92 98 100 100 99 100 100 99 97 95 94 91 88 75 76 80 88 97 100
90 81 77 60 75 74 73 68 68 65 64 66 82 93 98 97 81 74 74 76 76 75 78 80 82 83 86 92 99 100 100 100 100 100 99 98 99 99 100 100 100 100 99 99
98 82 96 54 53 61 60 78 62 71 69 72 81 95 93 90 83 78 74 74 78 78 76 78 76 72 72 69 81 93 98 93 97 100 99 98 99 99 98 100 99 100 100 93
92 88 83 61 52 62 86 70 63 67 67 77 84 85 90 90 84 82 79 79 77 77 76 72 70 67 66 76 85 95 97 98 99 98 99 99 99 100 100 100 89 44 35 38
92 96 94 52 67 75 62 61 63 64 65 74 84 84 84 90 91 93 86 84 82 76 76 68 69 72 94 98 100 98 99 99 100 99 99 99 98 67 37 36 38 39 37 30
79 75 52 52 56 50 56 58 59 61 62 71 83 82 82 86 90 93 91 88 92 82 72 72 95 100 95 100 100 98 99 99 99 94 54 36 35 36 37 39 35 25 22 22
81 63 64 58 55 56 59 59 58 58 60 72 80 85 84 83 88 94 88 92 92 94 98 99 99 100 99 100 100 100 99 78 44 34 31 32 37 39 32 23 22 20 17 16
81 70 59 58 54 56 56 58 58 58 62 70 84 84 81 86 88 88 88 96 98 98 98 98 99 99 99 99 95 77 45 36 32 31 34 37 34 24 21 20 15 15 18 21
83 66 65 60 59 59 58 59 61 59 64 79 87 86 80 86 88 90 87 94 99 98 98 99 97 84 78 76 71 51 38 31 28 33 38 25 21 21 20 17 17 18 20 23
82 76 73 66 66 63 61 62 60 59 64 74 88 87 82 81 89 92 93 92 94 97 96 86 70 68 70 66 56 45 33 27 33 37 23 22 20 17 15 15 17 20 23 26
83 74 73 72 72 70 66 64 62 62 64 74 89 95 91 81 86 93 87 85 89 91 80 64 62 61 60 57 51 39 28 32 38 23 21 19 16 14 13 15 17 21 26 28
82 76 74 80 73 72 71 68 67 66 66 71 81 89 89 84 80 91 82 76 77 75 65 58 58 57 58 55 44 31 28 38 27 21 20 17 14 12 14 15 20 23 28 33
68 72 70 68 78 75 72 71 70 68 68 72 74 76 80 84 84 93 65 62 63 60 58 59 57 56 60 51 35 26 33 32 21 20 18 14 12 13 15 20 23 27 31 33
99 92 82 79 85 85 78 76 73 70 68 71 72 73 74 79 85 95 78 65 59 59 59 58 55 57 61 44 28 28 37 22 21 19 16 12 12 14 19 23 26 29 32 36
96 95 95 98 94 86 77 84 82 71 68 70 73 72 72 72 78 90 75 74 64 59 56 56 54 59 58 38 27 36 26 21 20 18 13 12 13 17 22 26 28 31 32 36
100 100 98 95 92 89 85 84 86 74 68 71 72 71 73 76 81 80 63 64 64 55 54 54 55 60 49 31 32 33 22 21 20 18 12 13 14 19 24 28 30 32 34 37
100 100 98 99 97 87 83 82 78 72 70 74 78 83 86 87 75 68 63 58 53 51 52 53 57 59 43 29 36 26 22 21 20 16 12 13 16 22 27 31 33 35 37 40
95 95 97 96 96 99 91 75 74 76 86 77 81 87 83 76 71 68 63 57 51 50 51 53 58 54 34 32 35 24 22 21 20 15 13 14 18 23 28 32 34 37 39 42
89 93 90 87 91 95 95 98 100 99 96 82 71 71 72 72 70 66 61 56 51 51 52 55 59 49 32 37 33 23 22 22 21 15 13 14 19 24 29 33 35 39 42 44
76 81 87 88 86 84 82 85 95 96 90 82 75 77 74 70 70 65 62 57 51 52 54 57 56 42 33 39 31 23 22 22 21 14 13 14 21 25 29 35 37 39 42 44
45 58 70 80 86 85 83 82 79 78 77 84 96 90 86 71 69 66 62 57 56 55 56 59 53 39 33 40 31 24 23 23 22 14 13 15 21 27 30 35 37 40 42 47
36 38 43 57 71 84 87 84 82 80 78 76 73 70 72 75 73 67 63 60 57 58 59 60 52 38 34 41 32 24 24 24 22 13 13 15 22 28 32 36 37 39 41 54
27 30 34 47 72 80 86 91 90 85 80 76 74 72 70 68 70 66 63 60 60 58 59 59 51 39 35 42 33 24 24 24 21 13 12 17 24 30 32 35 36 39 45 61
23 23 25 31 46 70 84 92 95 94 92 85 77 74 71 69 70 68 64 62 60 60 63 58 52 42 38 44 33 25 24 25 20 12 13 20 28 32 34 34 36 41 57 68
Wind_Speed
2 4 3 4 4 7 6 5 6 4 6 12 12 12 18 7 13 17 20 20 17 17 15 14 15 15 16 17 17 16 12 9 6 5 6 7 10 11 14 16 17 18 20 21
3 3 5 4 7 8 9 6 10 15 19 20 24 14 9 10 13 15 15 13 14 12 11 13 15 15 16 14 13 13 10 4 4 5 6 8 9 12 14 14 14 17 19 19
3 4 5 5 8 12 6 6 11 10 14 9 6 5 5 7 11 11 10 11 11 11 12 14 14 14 13 11 9 7 4 3 2 2 5 7 8 8 11 13 16 17 16 14
2 4 1 5 2 5 13 8 14 9 11 10 9 6 3 5 8 7 7 8 7 8 9 10 10 9 7 6 5 5 6 7 6 6 8 10 10 14 19 20 18 17 15 14
1 3 6 2 3 6 6 4 8 13 9 8 4 2 5 5 6 5 5 5 5 6 6 6 5 7 7 7 6 5 7 9 11 9 14 13 16 17 17 16 18 17 15 12
3 2 4 3 2 1 4 3 3 6 4 2 1 4 1 4 5 4 3 4 3 3 4 4 7 8 7 6 7 10 11 12 13 13 13 15 17 18 19 17 15 13 11 8
3 2 6 8 5 3 3 4 2 6 7 5 3 3 1 3 4 3 3 3 2 1 1 4 5 6 5 6 9 11 11 13 12 13 16 17 16 15 14 12 12 12 9 7
3 3 7 5 3 2 3 3 4 6 8 8 6 4 2 1 2 4 4 3 4 3 4 5 6 5 8 14 15 15 15 16 17 16 16 15 13 15 14 12 9 8 6 4
7 5 5 4 5 9 11 12 6 5 5 8 8 8 5 3 3 5 7 8 7 7 10 10 7 10 15 18 17 16 16 16 16 16 16 14 12 11 9 7 6 5 5 5
1 3 7 14 15 19 14 9 7 8 7 10 11 10 9 7 6 7 10 12 13 13 14 16 16 16 16 16 13 14 15 15 14 12 11 10 8 8 7 6 6 6 6 6
4 8 14 10 8 7 6 8 9 9 8 10 13 12 11 11 10 7 10 14 14 15 17 17 14 14 14 13 13 13 12 12 11 9 8 7 6 6 5 5 6 7 9 10
3 3 3 7 9 11 11 10 10 9 8 9 13 12 12 13 12 11 11 13 15 15 14 15 14 14 14 12 10 8 8 8 7 5 5 4 4 6 9 12 12 11 11 11
4 13 19 21 18 13 12 10 8 7 7 9 13 14 13 14 14 14 14 14 13 14 13 14 13 11 11 10 8 6 4 4 3 3 4 6 8 9 9 9 9 10 11 11
6 11 5 4 5 10 10 10 9 8 7 9 12 15 16 15 17 17 15 14 15 15 14 13 12 10 9 8 6 4 3 2 3 5 6 7 8 8 9 10 11 11 12 12
10 10 14 15 12 10 10 11 11 9 8 10 13 14 17 18 19 19 17 16 16 15 15 13 11 9 9 7 5 3 1 3 4 5 6 7 8 9 11 12 13 13 12 12
19 20 16 14 13 11 11 11 12 10 10 11 12 14 14 15 17 18 19 18 17 17 15 12 9 7 7 5 4 2 2 3 4 6 7 8 9 11 12 13 13 13 13 13
16 16 15 16 12 11 12 12 11 11 10 11 11 13 15 17 18 21 21 20 17 15 13 12 9 9 7 6 5 5 5 5 6 7 8 9 10 12 13 14 13 13 13 13
13 15 16 17 19 18 19 15 14 13 13 11 12 15 17 19 19 20 21 21 20 19 18 15 12 11 9 9 8 8 7 7 7 8 9 10 11 13 14 14 14 14 14 13
7 10 11 11 12 13 13 15 15 13 12 12 14 16 16 17 18 18 19 21 22 23 22 18 15 14 12 11 10 9 8 7 7 8 9 10 12 14 14 15 14 15 15 15
6 7 7 6 6 7 7 8 9 11 11 12 13 14 16 17 18 19 20 22 24 22 20 18 17 15 14 12 11 10 8 8 8 9 10 11 13 14 15 16 15 15 15 16
10 10 10 9 6 7 3 2 5 8 10 11 12 12 12 13 17 19 21 24 23 20 20 18 17 16 14 13 11 10 9 9 9 10 11 12 14 15 16 16 16 16 16 16
13 12 11 9 7 6 5 3 4 7 8 9 10 11 12 15 17 19 20 21 21 22 22 19 18 16 15 13 12 11 10 10 10 11 11 13 14 15 16 16 16 16 17 17
14 14 13 11 9 8 6 5 5 6 8 9 11 11 12 13 16 20 21 21 22 22 21 19 18 17 16 14 13 11 11 11 11 11 12 14 15 16 16 16 16 17 16 16
14 13 14 13 11 8 7 7 7 7 9 10 13 14 13 14 16 18 20 19 20 21 20 20 19 18 17 15 14 13 12 11 12 13 13 14 16 16 17 17 16 16 15 15
13 13 13 12 11 10 10 9 8 9 10 11 12 13 14 16 18 18 20 19 21 22 21 21 20 19 19 16 15 13 12 12 13 13 14 15 17 17 17 17 17 17 14 14
13 14 15 13 12 12 13 12 11 11 11 11 12 13 15 16 18 19 19 20 21 20 21 21 22 22 19 17 15 14 13 12 13 14 15 16 17 17 17 16 16 16 15 15
11 12 13 12 10 11 12 11 12 11 13 13 13 12 13 15 17 19 21 21 22 22 19 22 22 21 18 17 15 14 13 13 14 15 16 17 18 18 16 16 15 15 16 17
Wind_Direction
268 226 189 201 189 169 182 179 180 250 227 266 293 299 306 323 344 349 354 358 357 348 355 355 356 350 345 338 335 330 324 315 288 255 216 197 190 192 193 190 190 192 186 180
306 351 216 248 226 199 212 226 255 260 278 277 282 289 297 348 352 355 347 348 346 350 2 7 6 359 355 347 350 342 326 302 228 188 179 173 173 172 170 162 162 162 164 169
292 344 326 297 225 202 182 200 215 231 244 286 295 300 334 340 349 337 338 346 348 358 5 11 6 1 359 354 359 0 4 42 47 121 146 145 140 142 140 138 138 141 142 155
292 353 341 243 178 178 200 228 219 261 270 290 296 315 301 326 335 326 331 340 353 3 12 15 12 13 2 3 5 33 80 83 97 115 121 121 122 129 135 137 144 149 149 147
312 281 287 300 166 147 178 269 206 224 262 281 312 305 263 319 334 315 325 342 1 13 16 30 26 31 15 7 36 59 85 101 112 116 116 116 133 138 138 142 136 131 130 132
198 269 247 251 216 80 138 319 173 189 233 244 345 350 355 329 339 323 323 345 344 357 357 23 32 32 22 17 39 65 77 87 94 104 108 119 126 128 126 123 118 120 125 114
238 251 278 251 274 134 85 237 217 223 266 209 209 210 264 350 8 19 0 351 356 15 9 52 53 47 67 83 92 89 92 93 96 102 113 116 119 119 120 120 115 106 103 104
177 217 265 197 92 175 220 308 290 269 262 227 229 188 179 113 39 51 50 61 90 106 117 92 84 66 106 108 99 100 104 110 113 115 111 111 113 110 106 96 96 94 82 62
181 214 248 208 260 289 293 301 297 281 267 227 210 199 178 156 109 80 74 73 104 116 117 113 98 113 116 107 110 116 115 113 114 113 110 105 100 96 95 90 72 54 28 356
85 256 256 278 291 296 277 266 293 298 268 228 217 208 191 169 147 123 102 97 101 113 117 114 116 118 114 116 117 116 115 115 113 111 104 97 87 78 62 50 31 11 353 338
261 285 283 279 286 286 270 276 294 291 268 232 214 209 200 185 170 153 129 126 124 124 124 125 125 122 121 123 121 121 118 112 108 98 87 75 64 55 34 18 10 10 4 354
233 304 275 289 330 313 282 284 288 281 261 221 212 214 209 198 183 172 162 148 147 145 143 139 136 128 126 124 119 115 114 108 100 88 74 61 42 26 17 13 5 354 347 341
273 294 278 278 288 288 278 281 275 278 257 230 211 218 217 208 194 183 176 172 163 156 154 145 141 140 137 132 126 122 123 112 96 81 61 35 16 2 352 347 341 339 337 334
265 330 305 307 301 302 279 269 270 273 256 227 218 216 217 214 203 190 189 184 177 175 170 166 161 162 158 150 148 154 151 103 60 36 14 355 343 339 339 342 341 337 333 332
238 303 302 297 299 290 275 271 268 266 253 224 213 215 216 209 207 198 185 186 180 182 180 179 176 174 171 165 166 166 71 14 359 343 333 329 332 338 340 340 337 335 334 334
295 300 306 285 283 291 283 278 271 263 248 226 217 212 211 212 208 204 196 195 197 194 189 186 184 184 185 181 184 228 288 296 303 311 319 326 333 336 337 337 335 333 334 334
311 314 307 297 293 284 277 283 280 261 249 230 222 210 208 207 206 205 201 200 202 202 204 203 200 203 208 211 221 243 260 271 288 304 316 326 332 334 334 334 332 332 331 330
292 296 298 297 296 282 265 275 279 257 246 230 222 215 209 212 215 209 202 199 198 201 203 207 211 216 222 226 234 244 252 266 287 305 319 326 330 331 331 330 327 326 326 324
307 306 305 300 295 285 269 261 270 249 232 228 224 223 218 217 218 214 210 206 204 206 204 207 214 220 224 228 236 244 253 270 292 310 317 323 327 327 326 324 322 322 322 321
341 340 337 330 335 313 285 268 240 227 225 230 226 222 218 213 212 214 213 213 210 210 209 215 219 223 225 229 236 244 256 276 294 306 312 318 321 323 323 322 321 320 319 318
16 11 7 10 3 1 347 248 222 229 235 231 228 230 235 227 218 214 215 214 209 209 212 219 224 227 227 232 238 247 260 277 292 303 309 313 320 322 322 321 319 318 319 319
22 19 14 11 4 344 341 317 256 246 246 236 236 234 231 229 222 218 219 220 211 212 216 218 224 226 228 234 239 248 262 277 290 300 306 313 318 318 320 321 319 319 320 320
15 15 13 11 4 356 342 319 293 266 260 252 242 246 245 240 237 226 220 213 211 217 220 222 225 226 230 236 241 251 263 277 291 300 305 312 316 317 320 320 320 319 321 318
349 350 356 360 357 344 332 323 304 288 274 266 258 244 239 240 238 236 229 225 223 222 221 224 227 228 233 238 244 253 264 278 293 299 306 312 315 316 318 318 319 319 318 316
341 339 331 327 335 338 329 316 306 292 283 273 261 252 246 240 234 235 237 225 223 225 222 224 228 230 235 238 245 253 264 279 293 300 306 310 312 314 316 316 318 316 314 312
335 340 341 340 329 326 324 322 320 311 296 282 270 263 254 245 240 236 232 228 227 229 225 227 229 231 236 239 245 254 266 281 295 300 304 307 309 312 312 314 314 311 310 313
327 326 325 331 333 317 315 315 316 319 310 298 282 267 260 250 241 237 231 229 226 223 224 231 231 233 235 240 247 256 269 283 294 298 303 307 310 310 311 312 311 309 311 313